Location: Holyhead Bay
(53.3667°N, 4.6667°W)
Time: 21:38:18
(UTC+00:00)

Cosmos 1408 Rocket - Pass Details

Date: 12 April 2021
Orbit: 601 x 631 km, 82.6° (Epoch: 16 May)

Event Time Altitude Azimuth Distance (km) Brightness Sun altitude
Rises 21:58:32 0° 356° (N) 2,868 7.9 -20.8°
Reaches altitude 10° 22:01:04 10° 9° (N) 1,959 6.7 -21.1°
Maximum altitude 22:04:43 26° 67° (ENE) 1,197 4.9 -21.4°
Enters shadow 22:04:54 26° 71° (ENE) 1,200 4.8 -21.4°
